Weather Roundup
Issued by NWS

Home | Current Version | Previous Version | Graphics & Text | Print | Product List | Glossary Off
Versions: 1 2 3 4 5 6 7 8 9 10 11 12 13 14 15 16 17 18 19 20 21 22 23 24 25 26 27 28 29 30 31 32 33 34 35 36 37 38 39 40 41 42 43 44 45 46 47 48 49 50

000
NZUS93 KARX 280059
HRRWXR

CURRENT HOURLY OBSERVATIONS ACROSS
MUCH OF THE UPPER MISSISSIPPI VALLEY
NATIONAL WEATHER SERVICE LA CROSSE WI
800 PM CDT SUN JUL 27 2014


...SOUTHEAST MINNESOTA...


CITY           SKY/WX    TMP DP  RH WIND       PRES   REMARKS
ROCHESTER      PTCLDY    68  58  70 N16       30.02R
ROCHESTER/MAYO FAIR      69  57  65 NW10G20   30.01R
WINONA         CLEAR     70  63  78 NW8       29.98R
AUSTIN         PTCLDY    70  61  73 NW12      30.01R
ALBERT LEA     CLOUDY    70  59  68 NW7       30.04R
DODGE CENTER   PTCLDY    66  61  82 N9        30.03R
PRESTON        MOCLDY    68  62  81 N12       30.00R
OWATONNA       MOCLDY    70  57  64 NW10      30.03R
FARIBAULT      MOCLDY    73  57  56 NW7       30.04R
$$

...ELSEWHERE IN MINNESOTA...


CITY           SKY/WX    TMP DP  RH WIND       PRES   REMARKS
MINNEAPOLIS    MOCLDY    70  58  65 N14G22    30.04R
INTNL FALLS    CLOUDY    67  52  58 N5        30.11R
DULUTH         PTCLDY    61  57  87 W7        30.07S
RED WING       PTCLDY    70  57  64 NE13G18   30.02R
REDWOOD FALLS  PTCLDY    70  58  65 NW15G24   30.09R
MANKATO        CLOUDY    66  57  72 NW8       30.06R
WORTHINGTON    CLEAR     66  55  68 NW14      30.14S
FAIRMONT       PTCLDY    70  55  60 NW13G21   30.08R
$$

...SOUTHWEST WISCONSIN...


CITY           SKY/WX    TMP DP  RH WIND       PRES   REMARKS
LA CROSSE      CLEAR     73  58  59 N12       29.94R
PRAIRIE DU CHI MOCLDY    71  61  70 NW8       29.92R
BOSCOBEL       CLOUDY    68  62  81 N6        29.93R
LONE ROCK      NOT AVBL
PLATTEVILLE    CLEAR     72  59  62 NW14      29.92R
FORT MC COY    PTCLDY    69  56  63 N7        29.95R
VIROQUA        FAIR      70  60  71 NW14      29.94R
WIS DELLS      CLEAR     68  59  73 NW7G16    29.90R
$$

...ELSEWHERE IN WISCONSIN...


CITY           SKY/WX    TMP DP  RH WIND       PRES   REMARKS
MILWAUKEE      MOCLDY    64  59  83 N15G22    29.84R
MADISON        MOCLDY    69  61  75 N6        29.89R
GREEN BAY      MOCLDY    65  55  70 N16       29.89R
EAU CLAIRE     MOCLDY    66  56  70 N8        30.01R
BLACK RVR FLS  FAIR      70  56  61 N13G18    29.96R
MEDFORD        CLOUDY    61  54  78 N14G24    30.00R
WAUSAU         PTCLDY    63  54  72 N8G18     29.96R
WIS RAPIDS     MOCLDY    67  57  70 MISG      29.96R
MARSHFIELD     MOCLDY    65  55  70 N15G23    29.98R
RICE LAKE      CLEAR     64  50  61 N14       30.06R
$$

...NORTHEAST IOWA...


CITY           SKY/WX    TMP DP  RH WIND       PRES   REMARKS
WATERLOO       CLEAR     72  59  63 NW12      29.98R
DUBUQUE        PTCLDY    70  58  65 NW13      29.94R
DECORAH        MOCLDY    72  57  60 N17G29    29.96R
MASON CITY     PTCLDY    68  61  78 NW17      30.05R
CHARLES CITY   CLOUDY    72  61  68 NW16      30.01R
OELWEIN        MOCLDY    72  61  68 NW13G18   29.98R
$$

...ELSEWHERE IN IOWA...


CITY           SKY/WX    TMP DP  RH WIND       PRES   REMARKS
DES MOINES     PTCLDY    73  56  54 N15G24    30.05R
IOWA CITY      PTCLDY    72  60  66 NW14      29.98R
FORT DODGE     PTCLDY    70  57  64 NW9       30.08S
MARSHALLTOWN   CLEAR     70  60  70 NW15      30.02R
CEDAR RAPIDS   CLEAR     70  60  70 NW16      29.97R
$$

...NORTHERN ILLINOIS...


CITY           SKY/WX    TMP DP  RH WIND       PRES   REMARKS
CHICAGO-OHARE  PTCLDY    73  54  51 NW15      29.81R
DUPAGE         PTCLDY    71  58  63 NW10      29.84R
CHICAGO-MIDWAY MOCLDY    76  56  49 NW25G31   29.81R
MOLINE         PTCLDY    74  58  57 NW17G25   29.92R
ROCKFORD       PTCLDY    73  56  54 NW14      29.87R
STERLING       PTCLDY    73  57  56 NW15G23   29.89R
PEORIA         CLEAR     75  57  53 NW10      29.91R
$$

NOTE: "FAIR" INDICATES FEW OR NO CLOUDS BELOW 12,000 FEET WITH NO
SIGNIFICANT WEATHER AND/OR OBSTRUCTIONS TO VISIBILITY. WIND
SPEEDS ARE IN MILES-PER-HOUR.



USA.gov is the U.S. government's official web portal to all federal, state and local government web resources and services.